QPF
0.04 0.04 0.05 0.04 0.03 0.03 0.03 0.04 0.03 0.04 0.05 0.03 0.02 0.02 0.02 0.01 0.01 0.02 0.02 0.02 0.02 0.03 0.03 0.02 0.03 0.03 0.03 0.03 0.04 0.02 0.02 0.02 0.01 0.01 0.01 0.02 0.02 0.01 0.01 0.00 0.00 0.00 0.00
0.05 0.05 0.04 0.05 0.04 0.04 0.04 0.05 0.04 0.04 0.04 0.04 0.03 0.02 0.02 0.02 0.01 0.01 0.02 0.03 0.02 0.02 0.03 0.02 0.02 0.03 0.03 0.03 0.03 0.02 0.02 0.03 0.02 0.01 0.01 0.01 0.01 0.01 0.02 0.01 0.00 0.00 0.00
0.06 0.05 0.05 0.05 0.05 0.05 0.06 0.08 0.06 0.03 0.03 0.04 0.03 0.02 0.02 0.03 0.02 0.02 0.01 0.03 0.03 0.02 0.02 0.03 0.03 0.03 0.03 0.03 0.04 0.03 0.04 0.04 0.02 0.01 0.01 0.01 0.01 0.01 0.01 0.01 0.01 0.00 0.00
0.04 0.04 0.04 0.05 0.06 0.06 0.06 0.08 0.05 0.04 0.04 0.05 0.06 0.04 0.04 0.04 0.03 0.03 0.01 0.02 0.03 0.03 0.04 0.03 0.03 0.03 0.03 0.03 0.04 0.04 0.04 0.04 0.03 0.02 0.02 0.02 0.02 0.01 0.01 0.01 0.00 0.00 0.00
0.04 0.05 0.05 0.06 0.06 0.07 0.08 0.06 0.06 0.06 0.05 0.06 0.06 0.05 0.04 0.05 0.05 0.03 0.01 0.01 0.02 0.03 0.05 0.04 0.02 0.02 0.03 0.04 0.05 0.06 0.07 0.05 0.04 0.04 0.03 0.03 0.03 0.03 0.02 0.01 0.00 0.00 0.01
0.07 0.08 0.06 0.06 0.07 0.08 0.09 0.08 0.09 0.08 0.05 0.06 0.04 0.06 0.05 0.03 0.04 0.04 0.02 0.01 0.02 0.02 0.03 0.05 0.06 0.03 0.02 0.03 0.05 0.06 0.07 0.08 0.06 0.05 0.05 0.04 0.04 0.04 0.03 0.02 0.01 0.01 0.01
0.08 0.11 0.10 0.10 0.10 0.09 0.09 0.07 0.07 0.08 0.05 0.05 0.08 0.09 0.06 0.03 0.03 0.04 0.03 0.04 0.03 0.02 0.02 0.05 0.08 0.06 0.05 0.03 0.02 0.03 0.04 0.06 0.07 0.07 0.06 0.06 0.05 0.05 0.03 0.02 0.02 0.02 0.02
0.07 0.08 0.11 0.09 0.09 0.10 0.10 0.09 0.09 0.08 0.05 0.04 0.07 0.08 0.07 0.06 0.04 0.02 0.03 0.04 0.03 0.03 0.03 0.02 0.05 0.07 0.07 0.07 0.03 0.01 0.03 0.05 0.06 0.08 0.07 0.06 0.05 0.04 0.03 0.03 0.02 0.02 0.03
0.08 0.08 0.08 0.08 0.08 0.07 0.09 0.10 0.10 0.10 0.10 0.07 0.06 0.07 0.07 0.07 0.06 0.03 0.01 0.01 0.02 0.03 0.03 0.03 0.03 0.05 0.05 0.06 0.06 0.03 0.02 0.03 0.04 0.07 0.10 0.08 0.06 0.04 0.03 0.03 0.03 0.03 0.03
0.09 0.09 0.08 0.09 0.07 0.05 0.08 0.07 0.07 0.09 0.10 0.08 0.07 0.06 0.05 0.06 0.08 0.06 0.03 0.01 0.01 0.02 0.02 0.02 0.02 0.03 0.04 0.06 0.07 0.04 0.01 0.01 0.03 0.05 0.08 0.07 0.04 0.03 0.03 0.03 0.03 0.04 0.03
0.10 0.08 0.06 0.07 0.07 0.06 0.07 0.07 0.06 0.07 0.07 0.07 0.07 0.06 0.06 0.06 0.06 0.06 0.07 0.05 0.02 0.01 0.01 0.01 0.02 0.03 0.03 0.05 0.07 0.04 0.01 0.01 0.01 0.02 0.04 0.05 0.05 0.03 0.02 0.02 0.04 0.05 0.04
0.10 0.08 0.06 0.08 0.07 0.06 0.07 0.07 0.07 0.07 0.09 0.09 0.09 0.06 0.06 0.05 0.05 0.05 0.06 0.06 0.05 0.02 0.01 0.01 0.02 0.02 0.02 0.02 0.02 0.01 0.00 0.00 0.01 0.01 0.01 0.02 0.03 0.03 0.03 0.04 0.04 0.05 0.05
0.07 0.10 0.07 0.09 0.07 0.07 0.08 0.09 0.10 0.08 0.09 0.10 0.09 0.07 0.05 0.05 0.05 0.04 0.05 0.05 0.05 0.02 0.02 0.01 0.01 0.01 0.01 0.02 0.02 0.01 0.01 0.01 0.01 0.02 0.02 0.02 0.02 0.02 0.03 0.03 0.04 0.05 0.05
0.08 0.10 0.08 0.07 0.07 0.07 0.07 0.10 0.09 0.08 0.07 0.07 0.08 0.08 0.06 0.05 0.04 0.03 0.04 0.05 0.06 0.06 0.06 0.05 0.02 0.01 0.02 0.02 0.02 0.02 0.02 0.01 0.02 0.02 0.02 0.02 0.03 0.02 0.03 0.03 0.03 0.02 0.03
0.07 0.08 0.08 0.07 0.07 0.07 0.07 0.09 0.08 0.08 0.08 0.06 0.06 0.07 0.06 0.04 0.04 0.03 0.03 0.05 0.07 0.09 0.10 0.08 0.05 0.03 0.03 0.03 0.03 0.03 0.03 0.02 0.02 0.02 0.01 0.02 0.02 0.02 0.02 0.03 0.02 0.02 0.02
0.08 0.08 0.07 0.07 0.07 0.05 0.05 0.08 0.07 0.07 0.07 0.06 0.06 0.07 0.08 0.07 0.06 0.07 0.08 0.09 0.11 0.11 0.11 0.08 0.07 0.05 0.03 0.03 0.03 0.03 0.03 0.03 0.02 0.01 0.01 0.01 0.01 0.02 0.02 0.02 0.02 0.02 0.02
0.07 0.07 0.07 0.09 0.08 0.07 0.06 0.06 0.05 0.06 0.08 0.10 0.10 0.11 0.13 0.14 0.14 0.12 0.12 0.11 0.13 0.13 0.13 0.10 0.07 0.04 0.04 0.03 0.03 0.04 0.03 0.02 0.02 0.02 0.01 0.01 0.01 0.02 0.02 0.02 0.02 0.02 0.02
0.06 0.06 0.06 0.07 0.06 0.05 0.07 0.07 0.06 0.07 0.09 0.10 0.11 0.12 0.13 0.13 0.12 0.11 0.11 0.11 0.12 0.13 0.12 0.10 0.09 0.06 0.06 0.05 0.06 0.05 0.04 0.03 0.03 0.03 0.03 0.02 0.03 0.03 0.02 0.02 0.02 0.03 0.03
0.07 0.06 0.05 0.06 0.07 0.07 0.07 0.08 0.09 0.10 0.10 0.09 0.09 0.09 0.08 0.10 0.11 0.11 0.10 0.09 0.09 0.09 0.11 0.12 0.11 0.08 0.07 0.06 0.07 0.06 0.06 0.06 0.04 0.04 0.04 0.04 0.04 0.03 0.03 0.03 0.04 0.04 0.04
0.08 0.10 0.08 0.07 0.08 0.08 0.08 0.09 0.10 0.09 0.08 0.06 0.06 0.07 0.07 0.09 0.10 0.12 0.12 0.11 0.11 0.11 0.12 0.12 0.12 0.12 0.12 0.11 0.10 0.10 0.09 0.08 0.07 0.06 0.05 0.05 0.05 0.04 0.04 0.04 0.05 0.05 0.04
0.05 0.06 0.07 0.08 0.08 0.08 0.07 0.08 0.10 0.09 0.08 0.06 0.06 0.06 0.07 0.08 0.09 0.10 0.11 0.11 0.12 0.12 0.11 0.11 0.12 0.13 0.13 0.12 0.11 0.10 0.10 0.10 0.09 0.07 0.07 0.06 0.05 0.05 0.05 0.05 0.05 0.05 0.04
0.05 0.04 0.05 0.05 0.06 0.06 0.07 0.07 0.07 0.07 0.08 0.07 0.07 0.07 0.07 0.08 0.09 0.09 0.10 0.10 0.10 0.10 0.10 0.11 0.13 0.15 0.15 0.15 0.15 0.14 0.13 0.12 0.11 0.10 0.10 0.11 0.09 0.08 0.07 0.05 0.05 0.04 0.03
0.05 0.04 0.05 0.06 0.06 0.06 0.07 0.05 0.05 0.05 0.04 0.05 0.05 0.06 0.07 0.08 0.07 0.06 0.06 0.08 0.09 0.09 0.10 0.12 0.15 0.16 0.17 0.17 0.17 0.17 0.16 0.16 0.15 0.14 0.14 0.14 0.11 0.09 0.07 0.05 0.04 0.03 0.02
0.05 0.07 0.09 0.10 0.10 0.09 0.07 0.06 0.07 0.06 0.05 0.05 0.05 0.05 0.06 0.06 0.07 0.07 0.06 0.07 0.08 0.09 0.11 0.11 0.13 0.15 0.15 0.15 0.14 0.15 0.16 0.17 0.16 0.15 0.13 0.12 0.10 0.07 0.04 0.03 0.03 0.03 0.02
0.03 0.05 0.06 0.06 0.07 0.09 0.09 0.07 0.06 0.05 0.05 0.05 0.05 0.05 0.06 0.06 0.08 0.09 0.08 0.08 0.10 0.10 0.11 0.10 0.10 0.10 0.11 0.10 0.10 0.11 0.12 0.13 0.13 0.11 0.08 0.06 0.05 0.04 0.03 0.03 0.03 0.03 0.02
0.01 0.02 0.02 0.02 0.03 0.04 0.05 0.05 0.04 0.02 0.02 0.02 0.03 0.03 0.04 0.04 0.05 0.06 0.05 0.05 0.06 0.06 0.06 0.06 0.06 0.06 0.07 0.08 0.07 0.07 0.07 0.08 0.08 0.06 0.05 0.04 0.05 0.05 0.05 0.05 0.04 0.03 0.03
MSLP
1018.90 1019.11 1019.25 1019.34 1019.40 1019.47 1019.57 1019.70 1019.85 1020.02 1020.16 1020.26 1020.31 1020.33 1020.35 1020.40 1020.53 1020.76 1021.09 1021.51 1021.97 1022.42 1022.81 1023.12 1023.31 1023.41 1023.45 1023.45 1023.46 1023.51 1023.60 1023.75 1023.92 1024.11 1024.28 1024.43 1024.54 1024.64 1024.71 1024.78 1024.85 1024.93 1025.00
1019.04 1019.26 1019.41 1019.50 1019.56 1019.62 1019.70 1019.83 1019.98 1020.15 1020.30 1020.43 1020.50 1020.54 1020.56 1020.60 1020.68 1020.85 1021.11 1021.45 1021.84 1022.24 1022.61 1022.92 1023.14 1023.29 1023.38 1023.44 1023.50 1023.58 1023.69 1023.84 1024.00 1024.17 1024.32 1024.46 1024.56 1024.65 1024.73 1024.80 1024.88 1024.96 1025.04
1019.14 1019.36 1019.52 1019.62 1019.68 1019.75 1019.83 1019.95 1020.11 1020.29 1020.46 1020.61 1020.71 1020.76 1020.79 1020.80 1020.85 1020.95 1021.12 1021.37 1021.68 1022.01 1022.34 1022.65 1022.90 1023.09 1023.25 1023.37 1023.48 1023.60 1023.74 1023.89 1024.04 1024.19 1024.33 1024.44 1024.53 1024.61 1024.69 1024.76 1024.85 1024.93 1025.02
1019.15 1019.38 1019.55 1019.67 1019.75 1019.83 1019.92 1020.04 1020.21 1020.39 1020.58 1020.75 1020.87 1020.95 1020.98 1020.98 1020.99 1021.03 1021.13 1021.29 1021.51 1021.77 1022.06 1022.34 1022.61 1022.85 1023.05 1023.24 1023.41 1023.57 1023.72 1023.88 1024.03 1024.16 1024.28 1024.37 1024.45 1024.52 1024.59 1024.66 1024.75 1024.84 1024.93
1019.06 1019.31 1019.50 1019.64 1019.75 1019.84 1019.95 1020.07 1020.24 1020.43 1020.62 1020.80 1020.95 1021.04 1021.09 1021.09 1021.08 1021.08 1021.11 1021.20 1021.34 1021.54 1021.77 1022.03 1022.30 1022.56 1022.80 1023.03 1023.25 1023.45 1023.63 1023.80 1023.95 1024.07 1024.17 1024.24 1024.31 1024.37 1024.43 1024.50 1024.58 1024.67 1024.75
1018.90 1019.16 1019.38 1019.55 1019.69 1019.80 1019.91 1020.04 1020.19 1020.37 1020.57 1020.75 1020.91 1021.02 1021.09 1021.10 1021.09 1021.06 1021.06 1021.09 1021.16 1021.29 1021.48 1021.70 1021.95 1022.21 1022.48 1022.74 1022.99 1023.22 1023.43 1023.61 1023.77 1023.89 1023.98 1024.05 1024.10 1024.15 1024.20 1024.27 1024.34 1024.42 1024.50
1018.70 1018.97 1019.21 1019.42 1019.58 1019.71 1019.82 1019.94 1020.09 1020.24 1020.42 1020.60 1020.76 1020.89 1020.97 1021.00 1021.00 1020.97 1020.94 1020.93 1020.95 1021.03 1021.15 1021.33 1021.54 1021.79 1022.06 1022.34 1022.61 1022.87 1023.11 1023.31 1023.47 1023.60 1023.70 1023.77 1023.82 1023.87 1023.92 1023.98 1024.05 1024.11 1024.18
1018.49 1018.77 1019.03 1019.25 1019.44 1019.58 1019.70 1019.81 1019.93 1020.06 1020.21 1020.37 1020.53 1020.66 1020.76 1020.81 1020.82 1020.80 1020.76 1020.72 1020.70 1020.71 1020.78 1020.90 1021.07 1021.29 1021.54 1021.82 1022.10 1022.38 1022.64 1022.87 1023.05 1023.21 1023.32 1023.41 1023.48 1023.53 1023.59 1023.65 1023.71 1023.77 1023.83
1018.29 1018.57 1018.83 1019.07 1019.27 1019.43 1019.55 1019.65 1019.75 1019.85 1019.97 1020.10 1020.24 1020.37 1020.48 1020.55 1020.58 1020.57 1020.52 1020.46 1020.40 1020.36 1020.36 1020.42 1020.53 1020.71 1020.93 1021.19 1021.48 1021.77 1022.05 1022.30 1022.53 1022.71 1022.86 1022.98 1023.08 1023.16 1023.23 1023.30 1023.37 1023.44 1023.50
1018.08 1018.33 1018.60 1018.85 1019.06 1019.23 1019.36 1019.45 1019.53 1019.61 1019.70 1019.82 1019.94 1020.07 1020.19 1020.27 1020.32 1020.31 1020.26 1020.18 1020.08 1019.99 1019.93 1019.92 1019.97 1020.09 1020.27 1020.51 1020.78 1021.08 1021.38 1021.66 1021.93 1022.16 1022.35 1022.52 1022.66 1022.78 1022.88 1022.98 1023.07 1023.16 1023.24
1017.82 1018.04 1018.29 1018.54 1018.76 1018.94 1019.08 1019.18 1019.25 1019.33 1019.41 1019.51 1019.63 1019.76 1019.89 1019.99 1020.05 1020.05 1020.00 1019.90 1019.77 1019.64 1019.53 1019.45 1019.44 1019.50 1019.64 1019.84 1020.09 1020.39 1020.70 1021.02 1021.32 1021.60 1021.84 1022.06 1022.26 1022.43 1022.58 1022.72 1022.85 1022.98 1023.09
1017.47 1017.66 1017.88 1018.12 1018.34 1018.53 1018.68 1018.79 1018.88 1018.96 1019.05 1019.16 1019.29 1019.43 1019.58 1019.70 1019.78 1019.80 1019.76 1019.66 1019.52 1019.35 1019.20 1019.07 1019.00 1019.01 1019.10 1019.26 1019.50 1019.79 1020.11 1020.44 1020.77 1021.10 1021.40 1021.67 1021.92 1022.16 1022.37 1022.57 1022.75 1022.92 1023.07
1017.02 1017.16 1017.35 1017.56 1017.77 1017.97 1018.13 1018.26 1018.37 1018.47 1018.58 1018.71 1018.87 1019.05 1019.22 1019.38 1019.50 1019.55 1019.54 1019.46 1019.32 1019.15 1018.97 1018.81 1018.70 1018.67 1018.72 1018.85 1019.06 1019.34 1019.66 1020.01 1020.36 1020.72 1021.07 1021.40 1021.71 1022.01 1022.29 1022.54 1022.78 1023.00 1023.20
1016.50 1016.59 1016.73 1016.90 1017.09 1017.27 1017.44 1017.58 1017.71 1017.84 1017.98 1018.14 1018.34 1018.56 1018.78 1018.99 1019.16 1019.27 1019.30 1019.27 1019.16 1019.01 1018.84 1018.68 1018.56 1018.51 1018.54 1018.65 1018.84 1019.10 1019.42 1019.77 1020.15 1020.53 1020.92 1021.30 1021.67 1022.02 1022.35 1022.67 1022.96 1023.23 1023.47
1015.96 1015.99 1016.08 1016.21 1016.36 1016.51 1016.66 1016.80 1016.93 1017.07 1017.23 1017.43 1017.66 1017.92 1018.20 1018.47 1018.71 1018.89 1019.01 1019.04 1019.00 1018.91 1018.78 1018.65 1018.56 1018.52 1018.54 1018.65 1018.83 1019.09 1019.40 1019.76 1020.15 1020.56 1020.97 1021.39 1021.80 1022.20 1022.58 1022.94 1023.28 1023.58 1023.84
1015.50 1015.48 1015.51 1015.58 1015.67 1015.77 1015.88 1015.98 1016.09 1016.22 1016.38 1016.59 1016.84 1017.14 1017.47 1017.81 1018.13 1018.40 1018.60 1018.73 1018.79 1018.78 1018.74 1018.68 1018.64 1018.64 1018.69 1018.82 1019.02 1019.28 1019.60 1019.97 1020.37 1020.79 1021.23 1021.67 1022.11 1022.54 1022.96 1023.34 1023.70 1024.02 1024.29
1015.22 1015.16 1015.12 1015.12 1015.14 1015.16 1015.20 1015.23 1015.29 1015.37 1015.50 1015.69 1015.94 1016.26 1016.62 1017.01 1017.40 1017.76 1018.07 1018.31 1018.48 1018.59 1018.65 1018.69 1018.74 1018.81 1018.93 1019.10 1019.34 1019.63 1019.97 1020.36 1020.78 1021.22 1021.67 1022.13 1022.58 1023.03 1023.45 1023.84 1024.20 1024.51 1024.77
1015.18 1015.08 1014.98 1014.91 1014.84 1014.77 1014.71 1014.65 1014.62 1014.62 1014.69 1014.82 1015.04 1015.35 1015.72 1016.15 1016.59 1017.03 1017.43 1017.78 1018.07 1018.30 1018.49 1018.65 1018.81 1018.98 1019.18 1019.43 1019.72 1020.07 1020.45 1020.87 1021.31 1021.77 1022.24 1022.70 1023.15 1023.59 1024.00 1024.37 1024.71 1024.99 1025.22
1015.38 1015.24 1015.10 1014.95 1014.80 1014.64 1014.48 1014.32 1014.18 1014.08 1014.05 1014.11 1014.27 1014.53 1014.89 1015.32 1015.80 1016.29 1016.77 1017.21 1017.61 1017.96 1018.27 1018.55 1018.82 1019.11 1019.41 1019.75 1020.13 1020.54 1020.98 1021.44 1021.91 1022.39 1022.86 1023.32 1023.76 1024.17 1024.54 1024.88 1025.17 1025.41 1025.60
1015.77 1015.61 1015.43 1015.23 1015.01 1014.77 1014.51 1014.25 1014.01 1013.81 1013.68 1013.65 1013.74 1013.94 1014.25 1014.66 1015.14 1015.65 1016.18 1016.69 1017.17 1017.62 1018.03 1018.42 1018.81 1019.20 1019.61 1020.05 1020.51 1020.99 1021.49 1022.00 1022.50 1023.00 1023.47 1023.91 1024.32 1024.69 1025.01 1025.30 1025.53 1025.72 1025.86
1016.26 1016.08 1015.88 1015.65 1015.39 1015.10 1014.78 1014.45 1014.13 1013.84 1013.64 1013.52 1013.53 1013.67 1013.93 1014.29 1014.75 1015.26 1015.80 1016.34 1016.86 1017.37 1017.86 1018.34 1018.81 1019.30 1019.80 1020.32 1020.86 1021.41 1021.96 1022.51 1023.04 1023.53 1023.99 1024.40 1024.76 1025.08 1025.34 1025.56 1025.74 1025.87 1025.96
1016.74 1016.57 1016.37 1016.15 1015.88 1015.58 1015.24 1014.88 1014.52 1014.19 1013.93 1013.77 1013.71 1013.79 1013.99 1014.31 1014.72 1015.20 1015.72 1016.25 1016.79 1017.32 1017.85 1018.37 1018.90 1019.45 1020.01 1020.59 1021.19 1021.78 1022.37 1022.94 1023.46 1023.94 1024.37 1024.73 1025.04 1025.29 1025.49 1025.64 1025.75 1025.83 1025.88
1017.15 1017.00 1016.83 1016.64 1016.40 1016.13 1015.82 1015.48 1015.14 1014.81 1014.55 1014.36 1014.28 1014.32 1014.48 1014.74 1015.10 1015.53 1016.00 1016.50 1017.01 1017.53 1018.05 1018.58 1019.13 1019.70 1020.29 1020.89 1021.51 1022.12 1022.71 1023.26 1023.77 1024.21 1024.58 1024.88 1025.12 1025.30 1025.42 1025.51 1025.56 1025.60 1025.62
1017.47 1017.35 1017.23 1017.10 1016.93 1016.73 1016.49 1016.22 1015.94 1015.67 1015.44 1015.27 1015.20 1015.22 1015.35 1015.57 1015.88 1016.24 1016.66 1017.09 1017.55 1018.02 1018.50 1019.00 1019.53 1020.08 1020.65 1021.24 1021.84 1022.42 1022.98 1023.49 1023.94 1024.32 1024.62 1024.84 1025.00 1025.10 1025.16 1025.18 1025.19 1025.19 1025.19
1017.74 1017.67 1017.61 1017.56 1017.48 1017.37 1017.23 1017.05 1016.86 1016.67 1016.51 1016.40 1016.36 1016.39 1016.50 1016.69 1016.95 1017.25 1017.59 1017.96 1018.34 1018.74 1019.16 1019.60 1020.07 1020.56 1021.09 1021.63 1022.17 1022.69 1023.18 1023.62 1023.99 1024.29 1024.51 1024.65 1024.73 1024.75 1024.75 1024.72 1024.69 1024.66 1024.65
1018.03 1018.02 1018.04 1018.07 1018.08 1018.07 1018.03 1017.96 1017.86 1017.77 1017.68 1017.63 1017.63 1017.68 1017.79 1017.96 1018.17 1018.41 1018.68 1018.97 1019.27 1019.59 1019.93 1020.30 1020.69 1021.12 1021.57 1022.03 1022.49 1022.93 1023.34 1023.69 1023.96 1024.17 1024.29 1024.35 1024.36 1024.32 1024.27 1024.20 1024.14 1024.11 1024.09
Thickness
5745 5744 5743 5742 5743 5742 5740 5739 5740 5738 5737 5736 5736 5735 5735 5734 5734 5734 5728 5723 5722 5721 5720 5718 5717 5716 5715 5714 5713 5712 5711 5710 5709 5708 5707 5706 5705 5704 5704 5703 5702 5701 5700
5743 5742 5741 5740 5742 5741 5741 5739 5739 5738 5738 5737 5736 5735 5735 5734 5732 5731 5730 5725 5722 5721 5720 5718 5717 5716 5715 5713 5712 5711 5710 5709 5708 5707 5706 5705 5704 5703 5702 5702 5701 5700 5699
5741 5741 5741 5740 5741 5740 5738 5738 5738 5739 5738 5737 5737 5736 5735 5733 5733 5731 5731 5730 5726 5722 5720 5719 5717 5716 5715 5713 5712 5711 5710 5709 5707 5706 5705 5704 5703 5702 5701 5701 5700 5699 5698
5740 5740 5741 5741 5739 5739 5739 5738 5739 5740 5739 5738 5737 5737 5736 5733 5732 5731 5731 5730 5730 5728 5723 5720 5718 5717 5715 5714 5712 5711 5710 5709 5707 5706 5705 5704 5703 5701 5700 5699 5699 5698 5697
5740 5739 5741 5740 5738 5739 5739 5740 5740 5740 5739 5738 5738 5737 5737 5735 5733 5733 5733 5732 5730 5729 5728 5722 5720 5718 5717 5715 5713 5712 5710 5709 5708 5706 5705 5704 5702 5701 5700 5699 5698 5697 5696
5739 5739 5740 5739 5739 5739 5739 5739 5737 5737 5738 5737 5740 5739 5738 5737 5736 5735 5735 5734 5732 5730 5730 5728 5724 5721 5719 5717 5715 5713 5712 5710 5708 5707 5705 5704 5703 5701 5700 5699 5698 5697 5696
5740 5739 5741 5739 5739 5739 5739 5740 5739 5737 5737 5739 5736 5735 5737 5739 5739 5737 5737 5736 5735 5733 5731 5729 5727 5726 5723 5719 5717 5715 5713 5711 5710 5708 5706 5705 5703 5702 5700 5699 5697 5696 5695
5741 5741 5740 5740 5740 5739 5738 5738 5737 5738 5739 5739 5736 5732 5730 5734 5737 5742 5739 5736 5736 5735 5734 5732 5729 5727 5725 5724 5721 5717 5715 5712 5711 5709 5707 5705 5704 5702 5700 5699 5698 5696 5695
5742 5741 5741 5741 5740 5740 5739 5738 5737 5736 5735 5738 5739 5734 5729 5728 5735 5740 5740 5739 5737 5736 5736 5734 5732 5729 5726 5725 5723 5719 5716 5713 5711 5709 5707 5706 5704 5702 5700 5699 5697 5696 5694
5742 5742 5741 5740 5740 5741 5740 5740 5740 5738 5736 5735 5737 5737 5737 5736 5730 5730 5736 5740 5739 5736 5736 5736 5735 5731 5728 5725 5722 5719 5716 5714 5711 5709 5707 5706 5704 5702 5700 5698 5697 5695 5693
5742 5742 5742 5741 5740 5741 5740 5740 5740 5738 5738 5737 5737 5737 5736 5735 5734 5729 5727 5732 5736 5737 5736 5734 5733 5731 5729 5726 5723 5720 5716 5713 5711 5708 5706 5705 5703 5701 5699 5697 5695 5694 5692
5743 5743 5742 5741 5741 5741 5740 5739 5739 5738 5738 5737 5737 5738 5735 5733 5732 5731 5727 5727 5729 5733 5733 5732 5731 5729 5727 5725 5722 5718 5715 5712 5709 5707 5705 5703 5701 5699 5697 5695 5693 5691 5689
5744 5743 5744 5741 5741 5740 5739 5739 5738 5738 5738 5736 5735 5736 5737 5736 5736 5733 5729 5728 5727 5730 5729 5728 5727 5725 5724 5721 5718 5715 5711 5709 5706 5704 5702 5700 5698 5696 5693 5691 5689 5687 5684
5746 5744 5742 5741 5740 5739 5739 5738 5739 5738 5737 5736 5736 5734 5734 5735 5735 5734 5730 5727 5722 5723 5723 5722 5723 5720 5718 5715 5713 5710 5707 5704 5702 5700 5698 5695 5693 5691 5688 5686 5683 5681 5678
5745 5744 5742 5741 5740 5738 5738 5737 5738 5736 5735 5735 5734 5732 5731 5732 5732 5732 5730 5727 5721 5715 5715 5717 5716 5714 5711 5709 5706 5704 5701 5698 5696 5694 5691 5689 5686 5684 5681 5679 5676 5674 5671
5743 5742 5741 5740 5739 5738 5737 5736 5735 5735 5733 5731 5730 5728 5727 5728 5728 5727 5725 5724 5721 5716 5710 5711 5709 5708 5705 5704 5699 5696 5693 5690 5687 5686 5683 5681 5678 5676 5673 5670 5667 5665 5662
5740 5739 5739 5738 5737 5736 5735 5733 5733 5732 5730 5728 5727 5725 5723 5722 5721 5721 5720 5718 5716 5713 5705 5703 5702 5700 5696 5693 5691 5688 5686 5683 5679 5676 5674 5671 5669 5666 5663 5660 5657 5654 5651
5738 5737 5736 5735 5734 5733 5732 5731 5729 5728 5727 5724 5723 5721 5719 5718 5715 5715 5713 5712 5710 5707 5702 5696 5693 5690 5686 5684 5681 5679 5677 5675 5671 5666 5663 5660 5657 5655 5652 5649 5645 5642 5639
5735 5734 5732 5731 5730 5729 5728 5726 5725 5724 5722 5720 5718 5716 5714 5712 5709 5708 5705 5705 5704 5702 5698 5692 5687 5683 5679 5676 5672 5670 5667 5664 5661 5656 5652 5648 5645 5643 5640 5636 5633 5631 5627
5731 5729 5728 5727 5726 5724 5723 5721 5720 5718 5716 5714 5712 5710 5708 5706 5703 5701 5700 5697 5696 5693 5690 5686 5681 5676 5672 5668 5665 5662 5657 5654 5651 5647 5641 5637 5633 5630 5627 5624 5621 5618 5615
5727 5724 5723 5721 5720 5718 5716 5714 5713 5711 5709 5707 5704 5702 5699 5697 5695 5694 5693 5691 5689 5686 5684 5680 5675 5670 5665 5660 5657 5654 5649 5644 5638 5635 5632 5629 5625 5621 5616 5612 5608 5604 5602
5720 5719 5716 5715 5713 5711 5707 5705 5705 5704 5702 5699 5696 5694 5691 5688 5685 5682 5680 5678 5677 5676 5674 5671 5667 5661 5655 5652 5647 5644 5640 5636 5630 5624 5621 5618 5614 5611 5606 5601 5594 5591 5589
5714 5712 5710 5708 5705 5701 5698 5696 5696 5696 5693 5690 5687 5685 5684 5679 5676 5673 5669 5667 5664 5661 5660 5659 5655 5651 5646 5642 5638 5634 5628 5625 5619 5613 5610 5607 5603 5599 5594 5588 5583 5579 5576
5707 5704 5702 5700 5696 5691 5688 5687 5686 5686 5683 5680 5677 5674 5672 5668 5666 5664 5661 5657 5653 5649 5648 5645 5642 5638 5634 5630 5627 5623 5617 5611 5606 5602 5599 5596 5592 5588 5584 5578 5571 5568 5564
5700 5697 5695 5691 5688 5682 5679 5678 5677 5676 5672 5668 5665 5662 5659 5656 5652 5651 5650 5645 5641 5636 5632 5629 5626 5622 5618 5616 5613 5612 5607 5605 5599 5593 5588 5586 5582 5578 5574 5570 5562 5557 5553
5693 5690 5686 5683 5679 5675 5669 5668 5668 5668 5663 5659 5654 5649 5645 5643 5640 5639 5639 5635 5630 5625 5622 5617 5613 5609 5607 5602 5599 5598 5597 5595 5590 5584 5576 5573 5571 5568 5565 5560 5554 5549 5544